Warning: Javascript must be enabled to use all the features on this page!


Page Loading - Please Wait...

* We've detected you're using a mobile device. Find our Next Generation Station Page here.
Click to hideNews Bulletins

Peak Streamflow for the Nation

USGS 06185500 Missouri River near Culbertson MT

Richland County, Montana
Hydrologic Unit Code 10060005
Latitude  48°07'24.60", Longitude 104°28'23.88" NAD83
Drainage area 89,858  square miles
Gage datum 1,883.4 feet above NGVD29
Output formats
Table
Graph
Tab-separated file
peakfq (watstore) format
Reselect output format
Water
Year
Date Gage
Height
(feet)
Stream-
flow
(cfs)
1942 1942-08-30 9.46 14,8005
1943 1943-03-26 15.121 78,2005
1944 1943-10-09   21,0005
1945 1944-10-15   19,9005
1946 1946-08-25 10.78 20,4005
1947 1947-08-14   30,4005
1948 1948-09-17   29,3005
1949 1948-10-15   30,7005
1950 1950-04-17 12.441 23,0001,5
1951 1951-04-09   34,5005
1959 1959-03-25   21,5001,5
1960 1960-03-23 19.14 55,0002,5
1961 1961-09-30   15,0005
1962 1962-07-20   16,7005
1963 1963-02-09 13.05 16,0002,5
1964 1964-05-09 8.722 15,0005
1965 1965-05-09 10.752 23,8005
1966 1966-07-04 9.772 21,0005
1967 1967-04-12 9.742 25,6005
1968 1968-03-08   20,0002,5
1969 1969-04-06   40,0001,5
1970 1970-06-22 9.822 19,8005
1971 1971-04-12 10.152 22,3005
1972 1972-03-20   35,0005
1973 1973-03-12   19,0005
1974 1974-04-02   22,0005
1975 1975-07-13 12.89 39,6005
1976 1976-06-14   32,9001,5
1977 1977-02-10   16,6001,5
1978 1978-03-30   27,0001,5
1979 1979-04-18   52,0001,5
1980 1980-02-07   14,7001,5
1981 1981-07-16 8.452 16,6005
1982 1982-04-16 10.172 34,0005
1983 1983-02-18   15,0001,5
1984 1984-02-12   15,0001,5
1985 1985-01-17   15,0001,5
1986 1986-03-10   22,0001,5
1987 1987-08-01 8.222 17,3005
1988 1988-03-01   12,8001,5
1989 1989-04-06 7.122 14,1005
1990 1990-01-28   14,0001,5
1991 1991-07-02 8.132 16,5005
1992 1992-04-21 5.872 9,7205
1993 1993-07-24 8.192 16,7005
1994 1994-03-23 7.172 15,3005
1995 1995-09-06 7.482 14,3005
1996 1996-04-26 8.202 17,7005
1997 1997-04-03 8.592 26,9005
1998 1997-11-10   22,7001,5
1999 1999-03-22 9.552 23,4005
2000 2000-07-12 6.862 14,2005
2001 2001-01-28 10.261 12,2001,2,5
2002 2002-08-26 6.23 12,0005
2003 2003-05-14 6.322 12,0005
2004 2004-05-29 7.65 16,0005
2005 2005-06-14 5.792 10,0005
2006 2006-06-17 5.372 9,6205
2007 2007-06-06 6.442 12,0005
2008 2008-06-20 5.412 9,7105
2009 2009-04-10 6.942 8,6205
2010 2010-05-31 7.30 14,7005
2011 2011-06-16 17.50 104,0005
2012 2011-10-01 6.642 18,0005
2013 2013-06-08 7.522 19,5005
2014 2014-08-30 7.342 18,1005
2015 2015-03-18 10.701 14,0001,2,5
2016 2016-05-16 6.592 15,4005
2017 2017-03-20   23,5002,5
2018 2018-05-04 8.862 24,6005
2019 2019-03-29 13.791,2 37,7002,5
2020 2020-04-03 7.982 21,5005
?
  Peak Gage-Height Qualification Codes.
?
  Peak Streamflow Qualification Codes.